Flag Weather past 2 weeks in Linden, Guyana

Now
77 °F

Passing clouds.


Feels Like: 78 °F
Forecast: 72 / 86 °F
Wind: 5 mph from Northeast

Location: Georgetown/Cheddi Jagan International Airport

Current Time: Nov 22, 2014 at 9:27:47 PM

Latest Report: Nov 22, 2014 at 9:00 PM


Visibility: N/A

Pressure: 29.86 "Hg

Humidity: 94%

Dew point: 75 °F

Location of LindenLocation

Historic Weather in Linden — Graph

°F

Linden temperature yesterday

Maximum temperature yesterday: 86 °F (at 10:00 AM)
Minimum temperature yesterday: 73 °F (at 2:00 AM)
Average temperature yesterday: 78 °F

Past Weeks' High & Low Weather Summary

 TemperatureHumidityPressure
High91 °F (Nov 15, 2:00 PM)100% (Nov 7, 8:00 PM)29.98 "Hg (Nov 7, 8:00 PM)
Low70 °F (Nov 18, 5:00 AM)56% (Nov 15, 2:00 PM)29.71 "Hg (Nov 11, 4:00 PM)
Average79 °F89%29.84 "Hg
* Reported Nov 7 8:00 PM — Nov 22 8:00 PM, Linden, Weather by CustomWeather, © 2014

Note: Actual official high and low records may vary slightly from our data, if they occured in-between our weather recording intervals... More about our weather records

Advertising

Linden weather history for previous 24 hours

 ConditionsComfort  
Time TempWeatherWind HumidityBarometerVisibility
8:00 PM
Nov 22
77 °FClear.7 mph94%29.83 "Hg10 mi
7:00 PM77 °FPassing clouds.9 mph94%29.83 "HgN/A
6:00 PM79 °FPassing clouds.9 mph89%29.80 "HgN/A
5:00 PM82 °FScattered clouds.14 mph74%29.77 "HgN/A
4:00 PM86 °FScattered clouds.12 mph66%29.77 "HgN/A
3:00 PM86 °FScattered clouds.12 mph66%29.77 "HgN/A
2:00 PM86 °FScattered clouds.14 mph66%29.80 "HgN/A
1:00 PM88 °FBroken clouds.14 mph66%29.83 "HgN/A
12:00 PM88 °FPartly sunny.12 mph66%29.83 "HgN/A
11:00 AM86 °FPartly sunny.12 mph75%29.86 "HgN/A
10:00 AM82 °FPartly sunny.12 mph84%29.89 "HgN/A
9:00 AM81 °FScattered clouds.9 mph89%29.92 "HgN/A
8:00 AM77 °FSprinkles. Partly sunny.9 mph94%29.89 "Hg6 mi
7:00 AM77 °FScattered clouds.5 mph94%29.86 "HgN/A
6:00 AM75 °FRain showers. Partly sunny.5 mph100%29.86 "Hg3 mi
5:00 AM73 °FSprinkles. Partly cloudy.5 mph94%29.83 "Hg6 mi
4:00 AM73 °FPassing clouds.5 mph94%29.83 "HgN/A
3:00 AM73 °FPassing clouds.No wind100%29.80 "HgN/A
2:00 AM75 °FPassing clouds.2 mph94%29.83 "HgN/A
1:00 AM75 °FPassing clouds.5 mph94%29.83 "HgN/A
12:00 AM75 °FPartly cloudy.No wind94%29.86 "HgN/A
11:00 PM
Nov 21
75 °FPassing clouds.5 mph100%29.89 "HgN/A
10:00 PM75 °FPassing clouds.5 mph100%29.89 "HgN/A
9:00 PM75 °FPartly cloudy.5 mph100%29.86 "HgN/A
Weather by CustomWeather, © 2014

See weather overviewHow to use our weather pages